Regional Weather Roundup
Issued by NWS

Home | Current Version | Previous Version | Graphics & Text | Print | Product List | Glossary On
Versions: 1 2 3 4 5 6 7 8 9 10 11 12 13 14 15 16 17 18 19 20 21 22 23 24 25 26 27 28 29 30 31 32 33 34 35 36 37 38 39 40 41 42 43 44 45 46 47 48 49 50
000
ASUS43 KMPX 291301
RWRMN
WEATHER ROUNDUP FOR MINNESOTA
NATIONAL WEATHER SERVICE TWIN CITIES/CHANHASSEN MN
800 AM CDT FRI APR 29 2016


NOTE: "FAIR" INDICATES FEW OR NO CLOUDS BELOW 12,000 FEET WITH NO
SIGNIFICANT WEATHER AND/OR OBSTRUCTIONS TO VISIBILITY. N/A MEANS
CURRENT SKY AND/OR WEATHER CONDITIONS ARE NOT AVAILABLE.

MNZ060>063-068>070-291400-
   Twin Cities Metro

CITY           SKY/WX    TMP DP  RH WIND       PRES   REMARKS
TWIN CITIES    CLOUDY    39  37  92 CALM      30.20R FOG
ST PAUL        CLOUDY    38  37  97 W6        30.21R FOG
CRYSTAL        CLOUDY    41  38  89 NW5       30.19R
BLAINE         PTSUNNY   41  41 100 W3        30.19R FOG
EDEN PRAIRIE   CLOUDY    39  36  89 VRB6      30.19R FOG
SOUTH ST PAUL  CLOUDY    38  38  98 W6        30.20R FOG
LAKE ELMO      PTSUNNY   37  37 100 W5        30.20R
$$
MNZ001>005-007-008-013>017-022>024-027-028-291400-
   Northwest Minnesota

CITY           SKY/WX    TMP DP  RH WIND       PRES   REMARKS
BEMIDJI        CLOUDY    38  31  77 NE5       30.18R
HALLOCK        SUNNY     43  30  61 E5        30.24R
ROSEAU         SUNNY     37  32  81 E5        30.24S
WARROAD        SUNNY     39  34  81 NE8       30.24S
THIEF RVR FALL CLOUDY    43  28  56 NE9       30.22R
CROOKSTON      CLOUDY    43  32  65 E7        30.20S
FOSSTON        MOSUNNY   39  32  75 NE9       30.19S
DETROIT LAKES  MOSUNNY   39  37  93 S3        30.18R
MOORHEAD       MOSUNNY   39  36  87 SE6       30.19R
PARK RAPIDS    CLOUDY    40  35  83 CALM      30.16R
MAHNOMEN       FAIR      35  31  83 NE3       30.17S
$$
MNZ006-009>011-018-025>026-291400-
   North Central Minnesota

CITY           SKY/WX    TMP DP  RH WIND       PRES   REMARKS
BAUDETTE       SUNNY     42  30  62 NE9       30.22S
FLAG ISLAND    SUNNY     39  30  70 NE7       30.24S
INTL FALLS     SUNNY     41  32  70 NE8       30.21S
WASKISH        CLOUDY    41  32  70 NE6       30.21R
BIG FORK       CLOUDY    37  32  81 CALM      30.19R
LONGVILLE      CLOUDY    34  30  86 CALM      30.16S
GRAND RAPIDS   SUNNY     39  27  60 CALM      30.19R
CRANE LAKE     CLOUDY    34  34 100 CALM      30.22S
ORR            CLOUDY    34  28  80 CALM      30.17R
COOK           CLOUDY    34  28  80 CALM      30.19S
WALKER         FAIR      33  31  90 CALM      30.17R
$$
MNZ012-019>021-037-291400-
   Northeast Minnesota

CITY           SKY/WX    TMP DP  RH WIND       PRES   REMARKS
DULUTH         MOSUNNY   40  27  59 VRB3      30.18R
ELY            CLOUDY    39  30  70 N3        30.19S
HIBBING        MOSUNNY   36  29  75 CALM      30.18R
EVELETH        CLOUDY    36  32  87 CALM      30.19S
DULUTH HARBOR  SUNNY     37  34  87 CALM      30.21R
TWO HARBORS    SUNNY     45  30  57 NE3       30.16S
SILVER BAY     SUNNY     43  30  61 CALM      30.17R
GRAND MARAIS     N/A     45  29  53 VRB5      30.19S
G MARAIS ARPRT SUNNY     37  27  65 N8        30.17S
$$
MNZ029>031-032-039>041-046>048-054>057-064-291400-
   West Central Minnesota

CITY           SKY/WX    TMP DP  RH WIND       PRES   REMARKS
FERGUS FALLS   CLOUDY    39  39 100 SW3       30.18S
WHEATON        SUNNY     43  39  87 SW5       30.22R
MORRIS         CLOUDY    39  39 100 W5        30.19R
ALEXANDRIA     CLOUDY    40  38  93 NW8       30.20R
ELBOW LAKE     FAIR      36  36 100 SW6       30.19R FOG
WADENA         MOSUNNY   34  34 100 CALM      30.18  FOG
GLENWOOD       CLOUDY    37  37 100 W7        30.20R
APPLETON       SUNNY     41  39  93 CALM      30.20R
BENSON         CLOUDY    43  37  81 CALM      30.20S
ORTONVILLE     SUNNY     39  37  93 CALM      30.20R
MADISON        SUNNY     39  39 100 CALM      30.20R
WILLMAR        FAIR      39  39 100 N5        30.20F
$$
MNZ033>034-036-042>043-049>051-058-059-291400-
   Central Minnesota

CITY           SKY/WX    TMP DP  RH WIND       PRES   REMARKS
ST CLOUD       PTSUNNY   37  37 100 SW3       30.19R
SAUK CENTRE    FAIR      37  37 100 W3        30.20R
PAYNESVILLE    CLOUDY    37  37 100 W3        30.20S FOG
AITKIN         CLOUDY    37  28  70 CALM      30.16S
PINE RIVER     CLOUDY    36  30  80 CALM      30.20S
BRAINERD       CLOUDY    38  29  70 CALM      30.18R
STAPLES        CLOUDY    36  34  93 CALM      30.18R
LONG PRAIRIE   FAIR      36  36 100 SW5       30.19R
LITTLE FALLS   CLOUDY    37  32  81 CALM      30.18R
LITCHFIELD     CLOUDY    39  39 100 NW3       30.21R
BUFFALO        CLOUDY    39  38  95 W5        30.21R
MAPLE LAKE     CLOUDY    40  40  99 W5        30.21R FOG
HUTCHINSON     SUNNY     39  39 100 CALM      30.20F FOG
$$
MNZ037-044-045-052-053-291400-
   East Central Minnesota

CITY           SKY/WX    TMP DP  RH WIND       PRES   REMARKS
PRINCETON        N/A     37  36  93 NE3       30.20R
MORA           CLOUDY    36  30  80 E3        30.20R
CAMBRIDGE      CLOUDY    39  30  70 CALM      30.18R
RUSH CITY      CLOUDY    37  30  78 NE3       30.19R
MOOSE LAKE     MOSUNNY   37  28  70 NE5       30.17R
HINCKLEY       FAIR      36  32  87 NE6       30.18R
CLOQUET        SUNNY     37  27  65 NE3       30.18R
MCGREGOR       CLOUDY    36  30  80 NE5       30.19R
$$
MNZ071>073-080-081-089-090-097-098-291400-
   Southwest Minnesota

CITY           SKY/WX    TMP DP  RH WIND       PRES   REMARKS
MONTEVIDEO     SUNNY     43  43 100 CALM      30.21S
GRANITE FALLS  SUNNY     42  40  93 CALM      30.21S
CANBY          CLOUDY    42  42  99 N3        30.20S FOG
MARSHALL       CLOUDY    39  38  96 NE5       30.19R
REDWOOD FALLS  MOSUNNY   40  36  86 E5        30.18F
OLIVIA         MOSUNNY   39  36  87 NE3       30.18F
PIPESTONE      CLOUDY    37  36  93 NE5       30.14S
WINDOM         CLOUDY    37  36  93 CALM      30.16F
WORTHINGTON    CLOUDY    38  35  89 NE9       30.15F
JACKSON        CLOUDY    37  34  87 NE7       30.16R
TRACY          CLOUDY    38  37  97 NE6       30.18S
SLAYTON        CLOUDY    36  36 100 NE6       30.16S
$$
MNZ065>067-074>077-082>085-091>093-291400-
   South Central Minnesota

CITY           SKY/WX    TMP DP  RH WIND       PRES   REMARKS
MANKATO        CLOUDY    37  34  87 N8        30.18F
NEW ULM        CLOUDY    37  37 100 NE5       30.18S
ST JAMES       CLOUDY    34  32  93 N7        30.18S WCI  28
FAIRMONT       CLOUDY    39  28  65 N9        30.16R
GLENCOE        FOG       37  37 100 CALM      30.19F VSB 1/4
FARIBAULT      SUNNY     36  36 100 VRB2      30.19R
OWATONNA       CLOUDY    36  34  93 N6        30.17S FOG
WASECA         CLOUDY    36  34  93 NE8       30.18S
ALBERT LEA     CLOUDY    39  37  93 N7        30.15F
$$
MNZ078>079-086>088-094>096-291400-
   Southeast Minnesota

CITY           SKY/WX    TMP DP  RH WIND       PRES   REMARKS
ROCHESTER      CLOUDY    39  38  96 N9        30.17R
RED WING       CLOUDY    37  37 100 W3        30.19R FOG
STANTON        PTSUNNY   39  37  89 CALM      30.18S
DODGE CENTER   CLOUDY    37  37 100 N5        30.16S FOG
WINONA         CLOUDY    41  37  87 N3        30.17S
AUSTIN         PTSUNNY   37  36  93 N7        30.15F
PRESTON        CLOUDY    37  34  90 N5        30.15R
$$
ABBREVIATIONS USED IN REMARKS
   TC - TEMPERATURES IN CELSIUS
  WCI - WIND CHILL INDEX
   HX - HEAT INDEX
  VSB - VISIBILITY
$$




USA.gov is the U.S. government's official web portal to all federal, state and local government web resources and services.